Location: Unspecified
(42.9300°N, 71.1866°W)
Time: 20:02:05
(UTC-04:00)

Envisat - Visible Passes

Search period start: 22 June 2017 00:00
Search period end: 02 July 2017 00:00
Orbit: 764 x 766 km, 98.2° (Epoch: 21 June)

Date Brightness Start Highest point End Pass type
(mag) Time Alt. Az. Time Alt. Az. Time Alt. Az.
22 Jun 5.8 22:23:40 10° W 22:24:35 10° W 22:25:30 10° WNW visible
23 Jun 5.1 21:43:24 10° SSW 21:47:27 24° W 21:51:32 10° NW visible
24 Jun 3.8 21:05:36 10° S 21:10:32 52° W 21:15:30 10° NNW visible
25 Jun 5.6 22:10:51 10° WSW 22:13:21 14° W 22:15:52 10° WNW visible
26 Jun 4.7 21:31:52 10° SSW 21:36:17 30° W 21:40:44 10° NW visible
27 Jun 3.4 20:54:23 10° S 20:59:26 66° W 21:04:29 10° NNW visible
28 Jun 5.5 21:58:49 10° SW 22:02:08 17° W 22:05:28 10° NW visible
29 Jun 4.4 21:20:27 10° SSW 21:25:08 37° W 21:29:51 10° NNW visible
01 Jul 5.2 21:47:04 10° SW 21:50:56 22° W 21:54:51 10° NW visible
